Location: Six Mile Lake
(44.9000°N, 79.7170°W)
Time: 02:54:13
(UTC-04:00)

UKube-1 - Pass Details

Date: 02 July 2022
Orbit: 608 x 615 km, 98.4° (Epoch: 17 August)

Event Time Altitude Azimuth Distance (km) Brightness Sun altitude
Rises 23:14:02 0° 15° (NNE) 2,894 ? -16.0°
Reaches altitude 10° 23:16:14 10° 18° (NNE) 1,983 ? -16.2°
Maximum altitude 23:20:32 71° 103° (ESE) 652 ? -16.6°
Enters shadow 23:22:43 28° 181° (S) 1,151 ? -16.8°
